This is the latest recevied weather packets stored in our database for station/object OK2JF-6. If no packets are shown the sender has not sent any weather packets the latest 10 day(s).
| Time | Temp. | Humidity | Pressure | Rain* | Wind** | Luminosity | Snow |
|---|---|---|---|---|---|---|---|
| 1777557423 | 11.67° C | 32% | 1099.7 hPa | 0 mm | - | 275 W/m² | - |
| 1777557078 | 11.67° C | 32% | 1099.6 hPa | 0 mm | - | 303 W/m² | - |
| 1777556957 | 11.67° C | 33% | 1099.7 hPa | 0 mm | - | 307 W/m² | - |
| 1777556478 | 11.67° C | 32% | 1099.7 hPa | 0 mm | - | 321 W/m² | - |
| 1777555983 | 11.67° C | 33% | 1100 hPa | 0 mm | - | 337 W/m² | - |
| 1777555563 | 11.67° C | 32% | 1100 hPa | 0 mm | - | 348 W/m² | - |
| 1777554843 | 11.67° C | 33% | 1100.3 hPa | 0 mm | - | 366 W/m² | - |
| 1777554783 | 11.67° C | 33% | 1100.4 hPa | 0 mm | - | 367 W/m² | - |
| 1777554723 | 11.67° C | 33% | 1100.3 hPa | 0 mm | - | 368 W/m² | - |
| 1777553763 | 11.67° C | 34% | 1100.2 hPa | 0 mm | - | 387 W/m² | - |
| 1777553344 | 11.11° C | 34% | 1100.3 hPa | 0 mm | - | 374 W/m² | - |
| 1777553103 | 11.11° C | 33% | 1100.3 hPa | 0 mm | - | 389 W/m² | - |
| 1777552864 | 11.11° C | 34% | 1100.3 hPa | 0 mm | - | 412 W/m² | - |
| 1777552444 | 11.11° C | 34% | 1100.4 hPa | 0 mm | - | 416 W/m² | - |
| 1777552323 | 11.11° C | 33% | 1100.5 hPa | 0 mm | - | 421 W/m² | - |
| 1777552263 | 11.11° C | 33% | 1100.4 hPa | 0 mm | - | 423 W/m² | - |
| 1777552157 | 11.11° C | 33% | 1100.4 hPa | 0 mm | - | 159 W/m² | - |
| 1777552143 | 11.11° C | 33% | 1100.4 hPa | 0 mm | - | 195 W/m² | - |
| 1777551979 | 11.11° C | 33% | 1100.6 hPa | 0 mm | - | 390 W/m² | - |
| 1777551903 | 11.11° C | 33% | 1100.4 hPa | 0 mm | - | 423 W/m² | - |
| 1777551123 | 10.56° C | 35% | 1100.6 hPa | 0 mm | - | 41 W/m² | - |
| 1777551077 | 10.56° C | 35% | 1100.4 hPa | 0 mm | - | 41 W/m² | - |
| 1777550223 | 11.11° C | 35% | 1100.4 hPa | 0 mm | - | 463 W/m² | - |
| 1777549923 | 11.11° C | 34% | 1100.5 hPa | 0 mm | - | 468 W/m² | - |
| 1777549383 | 11.11° C | 33% | 1100.6 hPa | 0 mm | - | 476 W/m² | - |
* Rain latest hour (hover to see other rain measurements)
** Current wind speed in m/s (hover to see current wind gust speed)